Location: Austin
(30.3000°N, 97.7500°W)
Time: 12:21:12
(UTC-05:00)

Helios 1A Rocket - Pass Details

Date: 17 May 2026
Orbit: 399 x 409 km, 98.3° (Epoch: 11 June)

Event Time Altitude Azimuth Distance (km) Brightness Sun altitude
Rises 21:22:57 0° 16° (NNE) 2,315 6.2 -13.0°
Reaches altitude 10° 21:24:57 10° 21° (NNE) 1,451 5.1 -13.3°
Maximum altitude 21:28:01 59° 102° (ESE) 467 2.1 -13.9°
Enters shadow 21:30:32 14° 180° (S) 1,227 4.3 -14.3°
